contact:dominique.lefevre@mio.osupytheas.fr, maurice.libes@osupytheas.fr, didier.mallarino@osupytheas.fr
Project:EMSO http://www.emso-fr.org/EMSO-France
Depth: 2436.0 m
Title:EMSO Ligure Ouest : Data MII capteur CSTAR
DateTime,Latitude,Longitude,Instrument_Serial,Reference_Counts,Signal_Counts,Corrected_Signal_raw_counts,Calculated_Beam_c_inverse_meters,Internal_thermistor_counts
DateTime,Latitude,Longitude,Instrument_Serial,Reference_Counts,Signal_Counts,Corrected_Signal_raw_counts,Calculated_Beam_c_inverse_meters,Internal_thermistor_counts
2022-08-06T00:01:43,42.805,6.029,CST-1368DR,4628,5126,11795,01.122,551
2022-08-06T00:04:45,42.805,6.029,CST-1368DR,4628,5125,11793,01.123,551
2022-08-06T00:07:46,42.805,6.029,CST-1368DR,4628,5125,11794,01.123,551
2022-08-06T00:10:48,42.805,6.029,CST-1368DR,4628,5125,11794,01.123,551
2022-08-06T00:13:50,42.805,6.029,CST-1368DR,4627,5127,11801,01.120,551
2022-08-06T00:16:51,42.805,6.029,CST-1368DR,4628,5126,11797,01.122,551
2022-08-06T00:19:53,42.805,6.029,CST-1368DR,4628,5127,11798,01.121,551
2022-08-06T00:22:54,42.805,6.029,CST-1368DR,4627,5127,11801,01.120,551
2022-08-06T00:25:56,42.805,6.029,CST-1368DR,4627,5126,11798,01.121,551
2022-08-06T00:28:57,42.805,6.029,CST-1368DR,4628,5129,11803,01.120,551
2022-08-06T00:31:59,42.805,6.029,CST-1368DR,4628,5131,11807,01.118,551
2022-08-06T00:35:01,42.805,6.029,CST-1368DR,4628,5128,11801,01.120,551
2022-08-06T00:38:02,42.805,6.029,CST-1368DR,4627,5127,11801,01.120,551
2022-08-06T00:41:04,42.805,6.029,CST-1368DR,4627,5130,11807,01.118,551
2022-08-06T00:44:05,42.805,6.029,CST-1368DR,4627,5129,11804,01.119,551
2022-08-06T00:47:07,42.805,6.029,CST-1368DR,4627,5130,11807,01.118,551
2022-08-06T00:50:08,42.805,6.029,CST-1368DR,4628,5130,11804,01.119,551
2022-08-06T00:53:10,42.805,6.029,CST-1368DR,4627,5128,11803,01.120,551
2022-08-06T00:56:12,42.805,6.029,CST-1368DR,4627,5129,11804,01.119,551
2022-08-06T00:59:13,42.805,6.029,CST-1368DR,4627,5128,11802,01.120,551
2022-08-06T01:02:15,42.805,6.029,CST-1368DR,4627,5131,11810,01.117,551
2022-08-06T01:05:16,42.805,6.029,CST-1368DR,4627,5125,11797,01.122,550
2022-08-06T01:08:18,42.805,6.029,CST-1368DR,4627,5128,11803,01.120,551
2022-08-06T01:11:19,42.805,6.029,CST-1368DR,4627,5129,11805,01.119,551
2022-08-06T01:14:21,42.805,6.029,CST-1368DR,4627,5133,11815,01.116,551
2022-08-06T01:17:23,42.805,6.029,CST-1368DR,4627,5128,11803,01.120,551
2022-08-06T01:20:24,42.805,6.029,CST-1368DR,4627,5127,11800,01.121,551
2022-08-06T01:23:26,42.805,6.029,CST-1368DR,4628,5132,11809,01.118,551
2022-08-06T01:26:27,42.805,6.029,CST-1368DR,4627,5128,11802,01.120,551
2022-08-06T01:29:29,42.805,6.029,CST-1368DR,4627,5126,11799,01.121,551
2022-08-06T01:32:31,42.805,6.029,CST-1368DR,4628,5129,11803,01.120,551
2022-08-06T01:35:32,42.805,6.029,CST-1368DR,4627,5130,11807,01.118,551
2022-08-06T01:38:34,42.805,6.029,CST-1368DR,4627,5127,11800,01.121,551
2022-08-06T01:41:35,42.805,6.029,CST-1368DR,4627,5134,11816,01.115,551
2022-08-06T01:44:37,42.805,6.029,CST-1368DR,4627,5133,11815,01.116,551
2022-08-06T01:47:38,42.805,6.029,CST-1368DR,4627,5131,11809,01.118,551
2022-08-06T01:50:40,42.805,6.029,CST-1368DR,4627,5128,11804,01.119,551
2022-08-06T01:53:42,42.805,6.029,CST-1368DR,4627,5124,11793,01.123,551
2022-08-06T01:56:43,42.805,6.029,CST-1368DR,4627,5124,11793,01.123,551
2022-08-06T01:59:45,42.805,6.029,CST-1368DR,4627,5124,11793,01.123,551
2022-08-06T02:02:46,42.805,6.029,CST-1368DR,4627,5126,11799,01.121,551
2022-08-06T02:05:48,42.805,6.029,CST-1368DR,4627,5123,11792,01.123,551
2022-08-06T02:08:49,42.805,6.029,CST-1368DR,4627,5120,11785,01.126,551
2022-08-06T02:11:51,42.805,6.029,CST-1368DR,4627,5128,11803,01.120,551
2022-08-06T02:14:53,42.805,6.029,CST-1368DR,4627,5126,11799,01.121,551
2022-08-06T02:17:54,42.805,6.029,CST-1368DR,4627,5129,11805,01.119,551
2022-08-06T02:20:56,42.805,6.029,CST-1368DR,4627,5129,11805,01.119,551
2022-08-06T02:23:57,42.805,6.029,CST-1368DR,4627,5127,11800,01.121,551
2022-08-06T02:26:59,42.805,6.029,CST-1368DR,4627,5124,11793,01.123,551
2022-08-06T02:30:01,42.805,6.029,CST-1368DR,4627,5127,11800,01.121,551
2022-08-06T02:33:02,42.805,6.029,CST-1368DR,4627,5127,11801,01.120,551
2022-08-06T02:36:04,42.805,6.029,CST-1368DR,4627,5128,11803,01.120,551
2022-08-06T02:39:05,42.805,6.029,CST-1368DR,4627,5127,11801,01.120,551
2022-08-06T02:42:07,42.805,6.029,CST-1368DR,4627,5122,11789,01.125,551
2022-08-06T02:45:08,42.805,6.029,CST-1368DR,4628,5161,11877,01.095,550
2022-08-06T02:48:10,42.805,6.029,CST-1368DR,4628,5161,11875,01.095,551
2022-08-06T02:51:12,42.805,6.029,CST-1368DR,4628,5160,11874,01.096,551
2022-08-06T02:54:13,42.805,6.029,CST-1368DR,4628,5161,11877,01.095,551
2022-08-06T02:57:15,42.805,6.029,CST-1368DR,4628,5162,11879,01.094,551
2022-08-06T03:00:16,42.805,6.029,CST-1368DR,4628,5161,11877,01.095,551
2022-08-06T03:03:18,42.805,6.029,CST-1368DR,4628,5157,11868,01.098,551
2022-08-06T03:06:19,42.805,6.029,CST-1368DR,4628,5161,11877,01.095,551
2022-08-06T03:09:21,42.805,6.029,CST-1368DR,4628,5160,11875,01.095,550
2022-08-06T03:12:23,42.805,6.029,CST-1368DR,4628,5161,11877,01.095,551
2022-08-06T03:15:24,42.805,6.029,CST-1368DR,4627,5158,11873,01.096,551
2022-08-06T03:18:26,42.805,6.029,CST-1368DR,4628,5159,11873,01.096,551
2022-08-06T03:21:27,42.805,6.029,CST-1368DR,4628,5160,11874,01.096,551
2022-08-06T03:24:29,42.805,6.029,CST-1368DR,4628,5159,11872,01.096,551
2022-08-06T03:27:31,42.805,6.029,CST-1368DR,4628,5160,11874,01.096,551
2022-08-06T03:30:32,42.805,6.029,CST-1368DR,4628,5161,11876,01.095,551
2022-08-06T03:33:34,42.805,6.029,CST-1368DR,4627,5159,11874,01.096,551
2022-08-06T03:36:35,42.805,6.029,CST-1368DR,4627,5161,11878,01.094,551
2022-08-06T03:39:37,42.805,6.029,CST-1368DR,4627,5156,11868,01.098,551
2022-08-06T03:42:38,42.805,6.029,CST-1368DR,4628,5160,11873,01.096,551
2022-08-06T03:45:40,42.805,6.029,CST-1368DR,4628,5158,11870,01.097,551
2022-08-06T03:48:42,42.805,6.029,CST-1368DR,4627,5158,11872,01.096,551
2022-08-06T03:51:43,42.805,6.029,CST-1368DR,4628,5160,11873,01.096,551
2022-08-06T03:54:45,42.805,6.029,CST-1368DR,4627,5159,11873,01.096,551
2022-08-06T03:57:46,42.805,6.029,CST-1368DR,4628,5158,11870,01.097,551
2022-08-06T04:00:48,42.805,6.029,CST-1368DR,4628,5158,11870,01.097,551
2022-08-06T04:03:49,42.805,6.029,CST-1368DR,4628,5159,11871,01.097,551
2022-08-06T04:06:51,42.805,6.029,CST-1368DR,4628,5160,11874,01.096,551
2022-08-06T04:09:53,42.805,6.029,CST-1368DR,4628,5159,11871,01.097,551
2022-08-06T04:12:54,42.805,6.029,CST-1368DR,4628,5159,11873,01.096,551
2022-08-06T04:15:56,42.805,6.029,CST-1368DR,4628,5159,11872,01.096,551
2022-08-06T04:18:57,42.805,6.029,CST-1368DR,4628,5159,11873,01.096,551
2022-08-06T04:21:59,42.805,6.029,CST-1368DR,4628,5160,11873,01.096,551
2022-08-06T04:25:01,42.805,6.029,CST-1368DR,4628,5160,11874,01.096,551
2022-08-06T04:28:02,42.805,6.029,CST-1368DR,4628,5159,11872,01.096,551
2022-08-06T04:31:04,42.805,6.029,CST-1368DR,4628,5159,11872,01.096,551
2022-08-06T04:34:05,42.805,6.029,CST-1368DR,4627,5160,11876,01.095,551
2022-08-06T04:37:07,42.805,6.029,CST-1368DR,4628,5160,11874,01.096,551
2022-08-06T04:40:08,42.805,6.029,CST-1368DR,4628,5158,11870,01.097,551
2022-08-06T04:43:10,42.805,6.029,CST-1368DR,4628,5158,11869,01.097,551
2022-08-06T04:46:12,42.805,6.029,CST-1368DR,4628,5158,11869,01.097,551
2022-08-06T04:49:13,42.805,6.029,CST-1368DR,4628,5157,11868,01.098,551
2022-08-06T04:52:15,42.805,6.029,CST-1368DR,4628,5159,11871,01.097,551
2022-08-06T04:55:16,42.805,6.029,CST-1368DR,4628,5158,11869,01.097,551
2022-08-06T04:58:18,42.805,6.029,CST-1368DR,4628,5158,11869,01.097,551
2022-08-06T05:01:19,42.805,6.029,CST-1368DR,4627,5156,11867,01.098,551
2022-08-06T05:04:21,42.805,6.029,CST-1368DR,4628,5158,11870,01.097,551
2022-08-06T05:07:23,42.805,6.029,CST-1368DR,4628,5157,11867,01.098,551
2022-08-06T05:10:24,42.805,6.029,CST-1368DR,4627,5157,11870,01.097,551
2022-08-06T05:13:26,42.805,6.029,CST-1368DR,4628,5157,11868,01.098,551
2022-08-06T05:16:27,42.805,6.029,CST-1368DR,4628,5158,11870,01.097,551
2022-08-06T05:19:29,42.805,6.029,CST-1368DR,4627,5158,11873,01.096,551
2022-08-06T05:22:31,42.805,6.029,CST-1368DR,4627,5159,11873,01.096,551
2022-08-06T05:25:32,42.805,6.029,CST-1368DR,4627,5159,11874,01.096,551
2022-08-06T05:28:34,42.805,6.029,CST-1368DR,4628,5159,11871,01.097,551
2022-08-06T05:31:35,42.805,6.029,CST-1368DR,4627,5158,11872,01.096,551
2022-08-06T05:34:37,42.805,6.029,CST-1368DR,4627,5158,11872,01.096,551
2022-08-06T05:37:38,42.805,6.029,CST-1368DR,4627,5158,11873,01.096,551
2022-08-06T05:40:40,42.805,6.029,CST-1368DR,4627,5157,11870,01.097,551
2022-08-06T05:43:42,42.805,6.029,CST-1368DR,4627,5156,11867,01.098,551
2022-08-06T05:46:43,42.805,6.029,CST-1368DR,4627,5159,11873,01.096,551
2022-08-06T05:49:45,42.805,6.029,CST-1368DR,4627,5159,11874,01.096,551
2022-08-06T05:52:46,42.805,6.029,CST-1368DR,4627,5158,11872,01.096,551
2022-08-06T05:55:48,42.805,6.029,CST-1368DR,4627,5158,11873,01.096,551
2022-08-06T05:58:49,42.805,6.029,CST-1368DR,4627,5158,11873,01.096,551
2022-08-06T06:01:51,42.805,6.029,CST-1368DR,4627,5158,11873,01.096,551
2022-08-06T06:04:53,42.805,6.029,CST-1368DR,4627,5157,11869,01.097,551
2022-08-06T06:07:54,42.805,6.029,CST-1368DR,4627,5155,11864,01.099,551
2022-08-06T06:10:56,42.805,6.029,CST-1368DR,4627,5157,11870,01.097,551
2022-08-06T06:13:57,42.805,6.029,CST-1368DR,4627,5158,11873,01.096,551
2022-08-06T06:16:59,42.805,6.029,CST-1368DR,4627,5156,11868,01.098,551
2022-08-06T06:20:01,42.805,6.029,CST-1368DR,4627,5157,11870,01.097,551
2022-08-06T06:23:02,42.805,6.029,CST-1368DR,4627,5157,11870,01.097,551
2022-08-06T06:26:04,42.805,6.029,CST-1368DR,4627,5158,11871,01.097,551
2022-08-06T06:29:05,42.805,6.029,CST-1368DR,4627,5158,11871,01.097,551
2022-08-06T06:32:07,42.805,6.029,CST-1368DR,4627,5158,11871,01.097,551
2022-08-06T06:35:08,42.805,6.029,CST-1368DR,4627,5153,11861,01.100,551
2022-08-06T06:38:10,42.805,6.029,CST-1368DR,4627,5155,11865,01.099,551
2022-08-06T06:41:12,42.805,6.029,CST-1368DR,4627,5155,11865,01.099,551
2022-08-06T06:44:13,42.805,6.029,CST-1368DR,4627,5155,11865,01.099,551
2022-08-06T06:47:15,42.805,6.029,CST-1368DR,4627,5154,11862,01.100,551
2022-08-06T06:50:16,42.805,6.029,CST-1368DR,4627,5156,11867,01.098,551
2022-08-06T06:53:18,42.805,6.029,CST-1368DR,4627,5159,11873,01.096,551
2022-08-06T06:56:20,42.805,6.029,CST-1368DR,4627,5158,11872,01.096,551
2022-08-06T06:59:21,42.805,6.029,CST-1368DR,4627,5156,11868,01.098,551
2022-08-06T07:02:23,42.805,6.029,CST-1368DR,4627,5153,11859,01.101,551
2022-08-06T07:05:24,42.805,6.029,CST-1368DR,4627,5152,11857,01.102,551
2022-08-06T07:08:26,42.805,6.029,CST-1368DR,4627,5151,11855,01.102,551
2022-08-06T07:11:27,42.805,6.029,CST-1368DR,4627,5150,11854,01.103,551
2022-08-06T07:14:29,42.805,6.029,CST-1368DR,4627,5154,11862,01.100,551
2022-08-06T07:17:31,42.805,6.029,CST-1368DR,4627,5151,11857,01.102,551
2022-08-06T07:20:32,42.805,6.029,CST-1368DR,4627,5157,11869,01.097,551
2022-08-06T07:23:34,42.805,6.029,CST-1368DR,4627,5156,11868,01.098,551
2022-08-06T07:26:35,42.805,6.029,CST-1368DR,4627,5149,11852,01.103,551
2022-08-06T07:29:37,42.805,6.029,CST-1368DR,4627,5147,11846,01.105,551
2022-08-06T07:32:38,42.805,6.029,CST-1368DR,4627,5146,11844,01.106,551
2022-08-06T07:35:40,42.805,6.029,CST-1368DR,4627,5140,11831,01.110,551
2022-08-06T07:38:42,42.805,6.029,CST-1368DR,4627,5143,11838,01.108,551
2022-08-06T07:41:43,42.805,6.029,CST-1368DR,4627,5139,11828,01.111,551
2022-08-06T07:44:45,42.805,6.029,CST-1368DR,4627,5140,11830,01.111,551
2022-08-06T07:47:46,42.805,6.029,CST-1368DR,4627,5137,11823,01.113,551
2022-08-06T07:50:48,42.805,6.029,CST-1368DR,4627,5138,11825,01.112,551
2022-08-06T07:53:50,42.805,6.029,CST-1368DR,4627,5136,11822,01.113,551
2022-08-06T07:56:51,42.805,6.029,CST-1368DR,4627,5141,11832,01.110,551
2022-08-06T07:59:53,42.805,6.029,CST-1368DR,4627,5134,11816,01.115,551
2022-08-06T08:02:54,42.805,6.029,CST-1368DR,4627,5133,11813,01.116,551
2022-08-06T08:05:56,42.805,6.029,CST-1368DR,4627,5129,11804,01.119,551
2022-08-06T08:08:57,42.805,6.029,CST-1368DR,4627,5134,11816,01.115,551
2022-08-06T08:11:59,42.805,6.029,CST-1368DR,4627,5132,11812,01.117,551
2022-08-06T08:15:01,42.805,6.029,CST-1368DR,4627,5135,11818,01.115,551
2022-08-06T08:18:02,42.805,6.029,CST-1368DR,4627,5131,11810,01.117,551
2022-08-06T08:21:04,42.805,6.029,CST-1368DR,4627,5128,11804,01.119,551
2022-08-06T08:24:05,42.805,6.029,CST-1368DR,4627,5137,11823,01.113,551
2022-08-06T08:27:07,42.805,6.029,CST-1368DR,4627,5130,11807,01.118,551
2022-08-06T08:30:09,42.805,6.029,CST-1368DR,4627,5131,11811,01.117,551
2022-08-06T08:33:10,42.805,6.029,CST-1368DR,4627,5127,11800,01.121,551
2022-08-06T08:36:12,42.805,6.029,CST-1368DR,4627,5130,11807,01.118,551
2022-08-06T08:39:13,42.805,6.029,CST-1368DR,4627,5130,11807,01.118,551
2022-08-06T08:42:15,42.805,6.029,CST-1368DR,4627,5131,11810,01.117,551
2022-08-06T08:45:16,42.805,6.029,CST-1368DR,4627,5128,11804,01.119,551
2022-08-06T08:48:18,42.805,6.029,CST-1368DR,4627,5134,11816,01.115,551
2022-08-06T08:51:20,42.805,6.029,CST-1368DR,4627,5132,11812,01.117,551
2022-08-06T08:54:21,42.805,6.029,CST-1368DR,4627,5128,11804,01.119,551
2022-08-06T08:57:23,42.805,6.029,CST-1368DR,4627,5129,11805,01.119,551
2022-08-06T09:00:24,42.805,6.029,CST-1368DR,4627,5121,11787,01.125,551
2022-08-06T09:03:26,42.805,6.029,CST-1368DR,4627,5126,11799,01.121,551
2022-08-06T09:06:27,42.805,6.029,CST-1368DR,4627,5126,11799,01.121,551
2022-08-06T09:09:29,42.805,6.029,CST-1368DR,4627,5126,11797,01.122,551
2022-08-06T09:12:31,42.805,6.029,CST-1368DR,4627,5126,11799,01.121,551
2022-08-06T09:15:32,42.805,6.029,CST-1368DR,4627,5131,11809,01.118,551
2022-08-06T09:18:34,42.805,6.029,CST-1368DR,4627,5125,11796,01.122,551
2022-08-06T09:21:35,42.805,6.029,CST-1368DR,4627,5129,11804,01.119,551
2022-08-06T09:24:37,42.805,6.029,CST-1368DR,4627,5135,11819,01.114,551
2022-08-06T09:27:39,42.805,6.029,CST-1368DR,4627,5129,11805,01.119,551
2022-08-06T09:30:40,42.805,6.029,CST-1368DR,4627,5126,11797,01.122,551
2022-08-06T09:33:42,42.805,6.029,CST-1368DR,4627,5125,11795,01.122,551
2022-08-06T09:36:43,42.805,6.029,CST-1368DR,4627,5126,11797,01.122,551
2022-08-06T09:39:45,42.805,6.029,CST-1368DR,4627,5128,11803,01.120,551
2022-08-06T09:42:46,42.805,6.029,CST-1368DR,4627,5118,11779,01.128,551
2022-08-06T09:45:48,42.805,6.029,CST-1368DR,4627,5125,11795,01.122,551
2022-08-06T09:48:50,42.805,6.029,CST-1368DR,4627,5123,11791,01.124,551
2022-08-06T09:51:51,42.805,6.029,CST-1368DR,4627,5124,11794,01.123,551
2022-08-06T09:54:53,42.805,6.029,CST-1368DR,4627,5122,11789,01.125,551
2022-08-06T09:57:54,42.805,6.029,CST-1368DR,4627,5125,11796,01.122,551
2022-08-06T10:00:56,42.805,6.029,CST-1368DR,4627,5128,11803,01.120,551
2022-08-06T10:03:57,42.805,6.029,CST-1368DR,4627,5124,11794,01.123,551
2022-08-06T10:06:59,42.805,6.029,CST-1368DR,4627,5121,11786,01.126,551
2022-08-06T10:10:01,42.805,6.029,CST-1368DR,4627,5123,11792,01.123,551
2022-08-06T10:13:02,42.805,6.029,CST-1368DR,4627,5126,11798,01.121,551
2022-08-06T10:16:04,42.805,6.029,CST-1368DR,4627,5125,11797,01.122,551
2022-08-06T10:19:05,42.805,6.029,CST-1368DR,4627,5126,11797,01.122,551
2022-08-06T10:22:07,42.805,6.029,CST-1368DR,4627,5125,11796,01.122,551
2022-08-06T10:25:09,42.805,6.029,CST-1368DR,4627,5127,11800,01.121,551
2022-08-06T10:28:10,42.805,6.029,CST-1368DR,4627,5124,11794,01.123,551
2022-08-06T10:31:12,42.805,6.029,CST-1368DR,4627,5125,11795,01.122,551
2022-08-06T10:34:13,42.805,6.029,CST-1368DR,4627,5128,11802,01.120,551
2022-08-06T10:37:15,42.805,6.029,CST-1368DR,4627,5127,11800,01.121,551
2022-08-06T10:40:16,42.805,6.029,CST-1368DR,4627,5124,11794,01.123,551
2022-08-06T10:43:18,42.805,6.029,CST-1368DR,4627,5127,11801,01.120,551
2022-08-06T10:46:20,42.805,6.029,CST-1368DR,4627,5125,11796,01.122,551
2022-08-06T10:49:21,42.805,6.029,CST-1368DR,4627,5125,11797,01.122,551
2022-08-06T10:52:23,42.805,6.029,CST-1368DR,4627,5124,11793,01.123,551
2022-08-06T10:55:24,42.805,6.029,CST-1368DR,4627,5125,11795,01.122,551
2022-08-06T10:58:26,42.805,6.029,CST-1368DR,4627,5124,11793,01.123,551
2022-08-06T11:01:28,42.805,6.029,CST-1368DR,4627,5121,11786,01.126,551
2022-08-06T11:04:29,42.805,6.029,CST-1368DR,4627,5124,11794,01.123,551
2022-08-06T11:07:31,42.805,6.029,CST-1368DR,4627,5125,11797,01.122,551
2022-08-06T11:10:32,42.805,6.029,CST-1368DR,4627,5126,11799,01.121,551
2022-08-06T11:13:34,42.805,6.029,CST-1368DR,4627,5126,11799,01.121,551
2022-08-06T11:16:35,42.805,6.029,CST-1368DR,4627,5127,11800,01.121,551
2022-08-06T11:19:37,42.805,6.029,CST-1368DR,4627,5125,11797,01.122,551
2022-08-06T11:22:39,42.805,6.029,CST-1368DR,4627,5125,11796,01.122,551
2022-08-06T11:25:40,42.805,6.029,CST-1368DR,4627,5126,11797,01.122,551
2022-08-06T11:28:42,42.805,6.029,CST-1368DR,4627,5126,11797,01.122,551
2022-08-06T11:31:43,42.805,6.029,CST-1368DR,4627,5126,11799,01.121,551
2022-08-06T11:34:45,42.805,6.029,CST-1368DR,4627,5124,11794,01.123,551
2022-08-06T11:37:46,42.805,6.029,CST-1368DR,4627,5127,11801,01.120,551
2022-08-06T11:40:48,42.805,6.029,CST-1368DR,4627,5125,11795,01.122,551
2022-08-06T11:43:50,42.805,6.029,CST-1368DR,4627,5126,11798,01.121,551
2022-08-06T11:46:51,42.805,6.029,CST-1368DR,4627,5123,11792,01.123,551
2022-08-06T11:49:53,42.805,6.029,CST-1368DR,4627,5126,11799,01.121,551
2022-08-06T11:52:54,42.805,6.029,CST-1368DR,4627,5125,11797,01.122,551
2022-08-06T11:55:56,42.805,6.029,CST-1368DR,4627,5123,11792,01.123,551
2022-08-06T11:58:58,42.805,6.029,CST-1368DR,4627,5126,11799,01.121,551
2022-08-06T12:01:59,42.805,6.029,CST-1368DR,4627,5125,11797,01.122,551
2022-08-06T12:05:01,42.805,6.029,CST-1368DR,4627,5126,11797,01.122,551
2022-08-06T12:15:07,42.805,6.029,CST-1368DR,4627,5126,11798,01.121,551
2022-08-06T12:18:08,42.805,6.029,CST-1368DR,4627,5124,11794,01.123,551
2022-08-06T12:21:10,42.805,6.029,CST-1368DR,4627,5127,11801,01.120,551
2022-08-06T12:24:12,42.805,6.029,CST-1368DR,4627,5126,11799,01.121,551
2022-08-06T12:27:13,42.805,6.029,CST-1368DR,4627,5127,11800,01.121,551
2022-08-06T12:30:15,42.805,6.029,CST-1368DR,4627,5126,11799,01.121,551
2022-08-06T12:33:16,42.805,6.029,CST-1368DR,4627,5128,11802,01.120,551
2022-08-06T12:36:18,42.805,6.029,CST-1368DR,4627,5125,11796,01.122,551
2022-08-06T12:39:20,42.805,6.029,CST-1368DR,4627,5125,11797,01.122,551
2022-08-06T12:42:21,42.805,6.029,CST-1368DR,4627,5122,11789,01.125,551
2022-08-06T12:45:23,42.805,6.029,CST-1368DR,4627,5125,11795,01.122,551
2022-08-06T12:48:24,42.805,6.029,CST-1368DR,4627,5125,11796,01.122,551
2022-08-06T12:51:26,42.805,6.029,CST-1368DR,4627,5124,11794,01.123,551
2022-08-06T12:54:27,42.805,6.029,CST-1368DR,4627,5123,11792,01.123,551
2022-08-06T12:57:29,42.805,6.029,CST-1368DR,4627,5121,11786,01.126,551
2022-08-06T13:00:31,42.805,6.029,CST-1368DR,4627,5125,11796,01.122,551
2022-08-06T13:03:32,42.805,6.029,CST-1368DR,4627,5125,11796,01.122,551
2022-08-06T13:06:34,42.805,6.029,CST-1368DR,4627,5123,11792,01.123,551
2022-08-06T13:09:35,42.805,6.029,CST-1368DR,4627,5121,11787,01.125,551
2022-08-06T13:12:37,42.805,6.029,CST-1368DR,4627,5125,11797,01.122,551
2022-08-06T13:15:38,42.805,6.029,CST-1368DR,4627,5127,11800,01.121,551
2022-08-06T13:18:40,42.805,6.029,CST-1368DR,4627,5123,11792,01.123,551
2022-08-06T13:21:42,42.805,6.029,CST-1368DR,4627,5121,11788,01.125,551
2022-08-06T13:24:43,42.805,6.029,CST-1368DR,4627,5122,11790,01.124,551
2022-08-06T13:27:45,42.805,6.029,CST-1368DR,4627,5122,11790,01.124,551
2022-08-06T13:30:46,42.805,6.029,CST-1368DR,4627,5121,11786,01.126,551
2022-08-06T13:33:48,42.805,6.029,CST-1368DR,4627,5121,11788,01.125,551
2022-08-06T13:36:50,42.805,6.029,CST-1368DR,4627,5121,11786,01.126,551
2022-08-06T13:39:51,42.805,6.029,CST-1368DR,4627,5125,11795,01.122,551
2022-08-06T13:42:53,42.805,6.029,CST-1368DR,4627,5122,11789,01.125,551
2022-08-06T13:45:54,42.805,6.029,CST-1368DR,4627,5124,11794,01.123,551
2022-08-06T13:48:56,42.805,6.029,CST-1368DR,4627,5124,11794,01.123,551
2022-08-06T13:51:57,42.805,6.029,CST-1368DR,4627,5122,11790,01.124,551
2022-08-06T13:54:59,42.805,6.029,CST-1368DR,4627,5122,11790,01.124,551
2022-08-06T13:58:01,42.805,6.029,CST-1368DR,4627,5124,11794,01.123,551
2022-08-06T14:01:02,42.805,6.029,CST-1368DR,4627,5123,11791,01.124,551
2022-08-06T14:04:04,42.805,6.029,CST-1368DR,4627,5123,11792,01.123,551
2022-08-06T14:07:05,42.805,6.029,CST-1368DR,4627,5136,11821,01.114,551
2022-08-06T14:10:07,42.805,6.029,CST-1368DR,4627,5125,11795,01.122,551
2022-08-06T14:13:08,42.805,6.029,CST-1368DR,4627,5122,11789,01.125,551
2022-08-06T14:16:10,42.805,6.029,CST-1368DR,4627,5123,11791,01.124,551
2022-08-06T14:19:12,42.805,6.029,CST-1368DR,4627,5122,11788,01.125,551
2022-08-06T14:22:13,42.805,6.029,CST-1368DR,4627,5123,11791,01.124,551
2022-08-06T14:25:15,42.805,6.029,CST-1368DR,4627,5123,11792,01.123,551
2022-08-06T14:28:16,42.805,6.029,CST-1368DR,4627,5122,11789,01.125,551
2022-08-06T14:31:18,42.805,6.029,CST-1368DR,4627,5120,11785,01.126,551
2022-08-06T14:34:20,42.805,6.029,CST-1368DR,4627,5121,11787,01.125,551
2022-08-06T14:37:21,42.805,6.029,CST-1368DR,4627,5123,11791,01.124,551
2022-08-06T14:40:23,42.805,6.029,CST-1368DR,4627,5122,11789,01.125,551
2022-08-06T14:43:24,42.805,6.029,CST-1368DR,4627,5123,11791,01.124,551
2022-08-06T14:46:26,42.805,6.029,CST-1368DR,4627,5119,11782,01.127,551
2022-08-06T14:49:27,42.805,6.029,CST-1368DR,4627,5120,11785,01.126,551
2022-08-06T14:52:29,42.805,6.029,CST-1368DR,4627,5123,11792,01.123,551
2022-08-06T14:55:31,42.805,6.029,CST-1368DR,4627,5121,11786,01.126,551
2022-08-06T14:58:32,42.805,6.029,CST-1368DR,4627,5120,11784,01.126,551
2022-08-06T15:01:34,42.805,6.029,CST-1368DR,4627,5121,11786,01.126,551
2022-08-06T15:04:35,42.805,6.029,CST-1368DR,4627,5120,11785,01.126,551
2022-08-06T15:07:37,42.805,6.029,CST-1368DR,4627,5122,11788,01.125,551
2022-08-06T15:10:39,42.805,6.029,CST-1368DR,4627,5120,11784,01.126,551
2022-08-06T15:13:40,42.805,6.029,CST-1368DR,4627,5121,11786,01.126,551
2022-08-06T15:16:42,42.805,6.029,CST-1368DR,4627,5120,11784,01.126,551
2022-08-06T15:20:07,42.805,6.029,CST-1368DR,4627,5121,11788,01.125,551
2022-08-06T15:23:08,42.805,6.029,CST-1368DR,4627,5120,11785,01.126,551
2022-08-06T15:26:10,42.805,6.029,CST-1368DR,4627,5119,11782,01.127,551
2022-08-06T15:29:12,42.805,6.029,CST-1368DR,4627,5118,11779,01.128,551
2022-08-06T15:32:13,42.805,6.029,CST-1368DR,4626,5118,11783,01.127,551
2022-08-06T15:35:15,42.805,6.029,CST-1368DR,4626,5119,11784,01.126,551
2022-08-06T15:38:16,42.805,6.029,CST-1368DR,4627,5118,11781,01.127,551
2022-08-06T15:41:18,42.805,6.029,CST-1368DR,4627,5117,11778,01.128,551
2022-08-06T15:44:19,42.805,6.029,CST-1368DR,4626,5118,11782,01.127,551
2022-08-06T15:47:21,42.805,6.029,CST-1368DR,4627,5116,11774,01.130,551
2022-08-06T15:50:23,42.805,6.029,CST-1368DR,4627,5115,11774,01.130,551
2022-08-06T15:53:24,42.805,6.029,CST-1368DR,4627,5121,11788,01.125,551
2022-08-06T15:56:26,42.805,6.029,CST-1368DR,4627,5117,11777,01.129,551
2022-08-06T15:59:27,42.805,6.029,CST-1368DR,4627,5119,11781,01.127,551
2022-08-06T16:02:29,42.805,6.029,CST-1368DR,4627,5122,11789,01.125,551
2022-08-06T16:05:31,42.805,6.029,CST-1368DR,4627,5119,11781,01.127,551
2022-08-06T16:08:32,42.805,6.029,CST-1368DR,4627,5116,11775,01.129,551
2022-08-06T16:11:34,42.805,6.029,CST-1368DR,4627,5123,11791,01.124,551
2022-08-06T16:14:35,42.805,6.029,CST-1368DR,4627,5117,11777,01.129,551
2022-08-06T16:17:37,42.805,6.029,CST-1368DR,4627,5118,11781,01.127,551
2022-08-06T16:20:38,42.805,6.029,CST-1368DR,4626,5118,11782,01.127,551
2022-08-06T16:23:40,42.805,6.029,CST-1368DR,4627,5120,11784,01.126,551
2022-08-06T16:26:42,42.805,6.029,CST-1368DR,4626,5117,11781,01.127,551
2022-08-06T16:29:43,42.805,6.029,CST-1368DR,4627,5122,11788,01.125,551
2022-08-06T16:32:45,42.805,6.029,CST-1368DR,4627,5120,11784,01.126,551
2022-08-06T16:35:46,42.805,6.029,CST-1368DR,4626,5120,11787,01.125,551
2022-08-06T16:38:48,42.805,6.029,CST-1368DR,4626,5121,11789,01.125,551
2022-08-06T16:41:49,42.805,6.029,CST-1368DR,4627,5120,11785,01.126,551
2022-08-06T16:44:51,42.805,6.029,CST-1368DR,4627,5122,11790,01.124,551